Change the Weather History Date:

Wednesday, December 4, 2013

  Actual Average Record
Temperature  
Mean Temperature 76 °F 79 °F  
Max Temperature 80 °F 84 °F 91 °F (1989)
Min Temperature 71 °F 74 °F 67 °F (1913)
Degree Days  
Heating Degree Days 0 0  
Month to date heating degree days 0 0  
Since 1 July heating degree days 0 0  
Cooling Degree Days 11 14  
Month to date cooling degree days 51 56  
Year to date cooling degree days 5614 5482  
Growing Degree Days 26 (Base 50)    
Moisture  
Dew Point 72 °F    
Average Humidity 90    
Maximum Humidity 100    
Minimum Humidity 79    
Precipitation  
Precipitation 1.19 in 0.17 in 2.28 in (1947)
Month to date precipitation 2.06 0.70  
Year to date precipitation 79.56 52.03  
Sea Level Pressure  
Sea Level Pressure 30.01 in    
Wind  
Wind Speed 2 mph (ENE)    
Max Wind Speed 20 mph    
Max Gust Speed 25 mph    
Visibility 8 miles    
Events Rain    
T = Trace of Precipitation, MM = Missing Value Source: NWS Daily Summary

Daily Weather History Graph

Daily Weather History Graph

Search for Another Location

Airport or City:

Trip Planner

Search our weather history database for the weather conditions in past years. The results will help you decide how hot, cold, wet, or windy it might be!

Date:

Astronomy

Dec. 04, 2013 Rise Set
Actual Time 6:41 AM AST 5:46 PM AST
Civil Twilight 6:18 AM AST 6:10 PM AST
Nautical Twilight 5:51 AM AST 6:37 PM AST
Astronomical Twilight 5:24 AM AST 7:04 PM AST
Moon 8:11 AM AST (12/4) 7:46 PM AST (12/4)
Length of Visible Light 11h 52m
Length of Day
11h 04m
Waxing Crescent, 4% of the Moon is Illuminated
Dec 4
Waxing Crescent
Dec 9
First Quarter
Dec 17
Full
Dec 25
Last Quarter
Jan 1
New

Hourly Weather History & Observations

Time (AST) Temp. Heat Index Dew Point Humidity Pressure Visibility Wind Dir Wind Speed Gust Speed Precip Events Conditions
12:56 AM 75.9 °F - 71.1 °F 85% 30.00 in 10.0 mi Calm Calm - N/A   Scattered Clouds
1:56 AM 73.9 °F - 71.1 °F 91% 29.99 in 10.0 mi Calm Calm - N/A   Scattered Clouds
2:56 AM 73.9 °F - 72.0 °F 93% 29.97 in 10.0 mi Calm Calm - N/A   Clear
3:56 AM 73.9 °F - 72.0 °F 93% 29.95 in 10.0 mi Calm Calm - N/A   Clear
4:56 AM 73.9 °F - 72.0 °F 93% 29.97 in 10.0 mi Calm Calm - N/A   Partly Cloudy
5:56 AM 73.9 °F - 72.0 °F 93% 29.99 in 10.0 mi Calm Calm - N/A   Partly Cloudy
6:56 AM 73.0 °F - 72.0 °F 96% 30.00 in 10.0 mi Calm Calm - N/A   Mostly Cloudy
7:56 AM 75.0 °F - 72.0 °F 90% 30.03 in 10.0 mi Calm Calm - N/A   Mostly Cloudy
8:56 AM 77.0 °F - 73.0 °F 88% 30.05 in 10.0 mi Calm Calm - N/A   Mostly Cloudy
9:56 AM 77.0 °F - 72.0 °F 84% 30.05 in 10.0 mi ESE 3.5 mph - N/A   Mostly Cloudy
10:56 AM 78.1 °F - 73.0 °F 84% 30.05 in 10.0 mi East 6.9 mph - N/A   Overcast
11:56 AM 80.1 °F 84.2 °F 73.0 °F 79% 30.04 in 10.0 mi NE 5.8 mph - N/A   Overcast
12:29 PM 73.4 °F - 71.6 °F 94% 30.03 in 2.0 mi East 11.5 mph 25.3 mph 0.27 in Rain Heavy Rain
12:50 PM 73.4 °F - 69.8 °F 88% 30.02 in 1.0 mi East 5.8 mph - 0.82 in Rain Heavy Rain
12:56 PM 73.9 °F - 70.0 °F 87% 30.02 in 2.0 mi East 4.6 mph - 0.85 in Rain Rain
1:03 PM 73.4 °F - 69.8 °F 88% 30.02 in 2.0 mi NE 4.6 mph - 0.04 in Rain Rain
1:25 PM 73.4 °F - 69.8 °F 88% 30.03 in 4.0 mi Calm Calm - 0.12 in Rain Light Rain
1:56 PM 73.9 °F - 70.0 °F 87% 30.01 in 9.0 mi Calm Calm - 0.14 in Rain Light Rain
2:56 PM 76.6 °F - 74.1 °F 92% 30.00 in 3.0 mi NW 5.8 mph - 0.13 in Rain Light Rain
3:56 PM 77.4 °F - 72.7 °F 85% 30.00 in 7.0 mi WNW 6.9 mph - 0.04 in Rain Light Rain
4:56 PM 77.2 °F - 72.9 °F 86% 29.99 in 10.0 mi ESE 3.5 mph - 0.03 in   Overcast
5:56 PM 75.4 °F - 75.2 °F 99% 30.01 in 10.0 mi Calm Calm - N/A   Overcast
6:56 PM 75.9 °F - 75.4 °F 98% 30.01 in 10.0 mi Calm Calm - N/A   Mostly Cloudy
7:56 PM 74.5 °F - 73.9 °F 98% 30.01 in 10.0 mi Calm Calm - 0.00 in   Scattered Clouds
8:56 PM 73.9 °F - 73.4 °F 98% 30.01 in 10.0 mi Calm Calm - N/A   Scattered Clouds
9:56 PM 73.9 °F - - N/A% 30.02 in 10.0 mi Calm Calm - N/A   Scattered Clouds
10:56 PM 73.9 °F - 73.9 °F 100% 30.03 in 10.0 mi Calm Calm - 0.00 in   Scattered Clouds
11:56 PM 73.0 °F - 73.0 °F 100% 30.02 in 10.0 mi Calm Calm - N/A   Scattered Clouds